This is the latest recevied weather packets stored in our database for station/object WX5RP. If no packets are shown the sender has not sent any weather packets the latest 10 day(s).
| Time | Temp. | Humidity | Pressure | Rain* | Wind** | Luminosity | Snow |
|---|---|---|---|---|---|---|---|
| 1778154317 | 3.89° C | 81% | 1020.2 hPa | 0 mm | - | 0 W/m² | - |
| 1778153716 | 4.44° C | 81% | 1020 hPa | 0 mm | - | 0 W/m² | - |
| 1778153116 | 5° C | 81% | 1020 hPa | 0 mm | - | 0 W/m² | - |
| 1778152516 | 5.56° C | 80% | 1020 hPa | 0 mm | - | 0 W/m² | - |
| 1778151916 | 5.56° C | 81% | 1019.7 hPa | 0 mm | - | 0 W/m² | - |
| 1778151316 | 5.56° C | 81% | 1020.1 hPa | 0 mm | - | 0 W/m² | - |
| 1778150716 | 5° C | 80% | 1020.1 hPa | 0 mm | - | 0 W/m² | - |
| 1778150116 | 5° C | 80% | 1020.1 hPa | 0 mm | - | 0 W/m² | - |
| 1778149516 | 5° C | 80% | 1020.5 hPa | 0 mm | - | 0 W/m² | - |
| 1778148916 | 5° C | 80% | 1020.2 hPa | 0 mm | - | 0 W/m² | - |
| 1778148316 | 5° C | 79% | 1020.6 hPa | 0 mm | - | 0 W/m² | - |
| 1778147716 | 5° C | 78% | 1020.3 hPa | 0 mm | - | 0 W/m² | - |
| 1778147116 | 5° C | 77% | 1020.3 hPa | 0 mm | - | 0 W/m² | - |
| 1778146516 | 5° C | 76% | 1020.3 hPa | 0 mm | - | 0 W/m² | - |
| 1778145916 | 6.11° C | 73% | 1020 hPa | 0 mm | - | 0 W/m² | - |
| 1778145316 | 7.22° C | 72% | 1020.3 hPa | 0 mm | - | 0 W/m² | - |
| 1778144716 | 7.22° C | 70% | 1020.6 hPa | 0 mm | - | 0 W/m² | - |
| 1778144116 | 8.33° C | 67% | 1020.6 hPa | 0 mm | - | 0 W/m² | - |
| 1778143515 | 8.89° C | 66% | 1020.6 hPa | 0 mm | - | 0 W/m² | - |
| 1778142916 | 9.44° C | 65% | 1020.3 hPa | 0 mm | - | 0 W/m² | - |
| 1778142315 | 9.44° C | 65% | 1020.7 hPa | 0 mm | - | 0 W/m² | - |
| 1778141715 | 9.44° C | 65% | 1020.7 hPa | 0 mm | - | 0 W/m² | - |
| 1778141116 | 10° C | 64% | 1020.9 hPa | 0 mm | - | 0 W/m² | - |
| 1778140515 | 10.56° C | 62% | 1020.8 hPa | 0 mm | - | 0 W/m² | - |
| 1778139916 | 10.56° C | 63% | 1020.6 hPa | 0 mm | - | 0 W/m² | - |
* Rain latest hour (hover to see other rain measurements)
** Current wind speed in m/s (hover to see current wind gust speed)